timestamp,wind_dir_avg,wind_spd_max_dir,wind_spd_avg,wind_spd_gust,battery_voltage,lat,long
2018-02-23 00:00:00+00:00,306.0,305.0,7.62,9.04,,47.59359,-54.27349
2018-02-23 00:10:00+00:00,307.0,317.0,7.97,9.44,,47.59359,-54.27349
2018-02-23 00:20:00+00:00,312.0,315.0,8.15,9.45,,47.59359,-54.27349
2018-02-23 00:30:00+00:00,309.0,311.0,7.91,10.91,,47.59359,-54.27349
2018-02-23 00:40:00+00:00,320.0,322.0,9.45,11.35,,47.59359,-54.27349
2018-02-23 00:50:00+00:00,325.0,327.0,9.61,11.68,,47.59359,-54.27349
2018-02-23 01:00:00+00:00,328.0,326.0,10.65,12.65,,47.59359,-54.27349
2018-02-23 01:10:00+00:00,327.0,327.0,10.56,13.45,,47.59359,-54.27349
2018-02-23 01:20:00+00:00,325.0,332.0,10.09,11.69,,47.59359,-54.27349
2018-02-23 01:30:00+00:00,326.0,324.0,10.04,12.67,,47.59359,-54.27349
2018-02-23 01:40:00+00:00,324.0,327.0,8.97,10.9,,47.59359,-54.27349
2018-02-23 01:50:00+00:00,328.0,330.0,9.66,10.8,,47.59359,-54.27349
2018-02-23 02:00:00+00:00,331.0,319.0,10.56,14.01,,47.59359,-54.27349
2018-02-23 02:10:00+00:00,339.0,341.0,10.34,12.06,,47.59359,-54.27349
2018-02-23 02:20:00+00:00,337.0,328.0,10.54,12.72,,47.59359,-54.27349
2018-02-23 02:30:00+00:00,333.0,330.0,9.53,11.25,,47.59359,-54.27349
2018-02-23 02:40:00+00:00,334.0,337.0,9.74,12.31,,47.59359,-54.27349
2018-02-23 02:50:00+00:00,336.0,325.0,9.75,12.61,,47.59359,-54.27349
2018-02-23 03:00:00+00:00,339.0,329.0,11.64,15.72,,47.59359,-54.27349
2018-02-23 03:10:00+00:00,343.0,348.0,11.53,14.43,,47.59359,-54.27349
2018-02-23 03:20:00+00:00,337.0,326.0,11.15,13.96,,47.59359,-54.27349
2018-02-23 03:30:00+00:00,345.0,350.0,10.89,12.86,,47.59359,-54.27349
2018-02-23 03:40:00+00:00,339.0,335.0,10.29,12.63,,47.59359,-54.27349
2018-02-23 03:50:00+00:00,338.0,331.0,10.86,13.02,,47.59359,-54.27349
2018-02-23 04:00:00+00:00,337.0,340.0,7.74,9.75,,47.59359,-54.27349
2018-02-23 04:10:00+00:00,340.0,343.0,8.37,10.72,,47.59359,-54.27349
2018-02-23 04:20:00+00:00,338.0,342.0,7.56,9.99,,47.59359,-54.27349
2018-02-23 04:30:00+00:00,337.0,345.0,7.36,10.16,,47.59359,-54.27349
2018-02-23 04:40:00+00:00,336.0,342.0,6.85,9.69,,47.59359,-54.27349
2018-02-23 04:50:00+00:00,330.0,330.0,5.97,7.52,,47.59359,-54.27349
2018-02-23 05:00:00+00:00,340.0,340.0,7.87,9.76,,47.59359,-54.27349
2018-02-23 05:10:00+00:00,337.0,343.0,6.26,9.76,,47.59359,-54.27349
2018-02-23 05:20:00+00:00,334.0,331.0,6.31,8.0,,47.59359,-54.27349
2018-02-23 05:30:00+00:00,340.0,341.0,7.13,10.32,,47.59359,-54.27349
2018-02-23 05:40:00+00:00,335.0,348.0,6.42,8.61,,47.59359,-54.27349
2018-02-23 05:50:00+00:00,340.0,331.0,6.14,7.68,,47.59359,-54.27349
2018-02-23 06:00:00+00:00,338.0,343.0,7.7,10.05,,47.59359,-54.27349
2018-02-23 06:10:00+00:00,339.0,343.0,6.73,9.7,,47.59359,-54.27349
2018-02-23 06:20:00+00:00,333.0,335.0,6.31,9.07,,47.59359,-54.27349
2018-02-23 06:30:00+00:00,335.0,339.0,6.19,10.0,,47.59359,-54.27349
2018-02-23 06:40:00+00:00,335.0,342.0,6.53,9.49,,47.59359,-54.27349
2018-02-23 06:50:00+00:00,334.0,324.0,5.79,7.02,,47.59359,-54.27349
2018-02-23 07:00:00+00:00,336.0,341.0,5.88,7.09,,47.59359,-54.27349
2018-02-23 07:10:00+00:00,333.0,332.0,5.69,6.86,,47.59359,-54.27349
2018-02-23 07:20:00+00:00,330.0,333.0,5.63,6.96,,47.59359,-54.27349
2018-02-23 07:30:00+00:00,333.0,327.0,4.77,5.91,,47.59359,-54.27349
2018-02-23 07:40:00+00:00,338.0,4.0,2.33,3.61,,47.59359,-54.27349
2018-02-23 07:50:00+00:00,330.0,324.0,4.29,6.26,,47.59359,-54.27349
2018-02-23 08:00:00+00:00,332.0,325.0,5.48,6.69,,47.59359,-54.27349
2018-02-23 08:10:00+00:00,336.0,333.0,5.67,7.57,,47.59359,-54.27349
2018-02-23 08:20:00+00:00,330.0,326.0,5.08,6.74,,47.59359,-54.27349
2018-02-23 08:30:00+00:00,327.0,325.0,5.56,6.92,,47.59359,-54.27349
2018-02-23 08:40:00+00:00,338.0,339.0,5.42,6.58,,47.59359,-54.27349
2018-02-23 08:50:00+00:00,335.0,334.0,5.7,6.93,,47.59359,-54.27349
2018-02-23 09:00:00+00:00,331.0,330.0,5.59,8.56,,47.59359,-54.27349
2018-02-23 09:10:00+00:00,335.0,332.0,7.28,9.65,,47.59359,-54.27349
2018-02-23 09:20:00+00:00,332.0,337.0,6.18,8.49,,47.59359,-54.27349
2018-02-23 09:30:00+00:00,344.0,350.0,9.91,12.33,,47.59359,-54.27349
2018-02-23 09:40:00+00:00,330.0,329.0,5.48,6.91,,47.59359,-54.27349
2018-02-23 09:50:00+00:00,334.0,325.0,5.09,6.6,,47.59359,-54.27349
2018-02-23 10:00:00+00:00,339.0,332.0,4.38,6.46,,47.59359,-54.27349
2018-02-23 10:10:00+00:00,333.0,330.0,5.48,7.23,,47.59359,-54.27349
2018-02-23 10:20:00+00:00,328.0,334.0,4.33,6.62,,47.59359,-54.27349
2018-02-23 10:30:00+00:00,335.0,348.0,6.67,10.87,,47.59359,-54.27349
2018-02-23 10:40:00+00:00,338.0,341.0,7.19,9.95,,47.59359,-54.27349
2018-02-23 10:50:00+00:00,342.0,346.0,9.31,12.54,,47.59359,-54.27349
2018-02-23 11:00:00+00:00,339.0,333.0,8.43,11.61,,47.59359,-54.27349
2018-02-23 11:10:00+00:00,336.0,349.0,9.05,12.3,,47.59359,-54.27349
2018-02-23 11:20:00+00:00,331.0,337.0,6.11,7.68,,47.59359,-54.27349
2018-02-23 11:30:00+00:00,339.0,345.0,8.25,10.23,,47.59359,-54.27349
2018-02-23 11:40:00+00:00,335.0,331.0,7.01,9.2,,47.59359,-54.27349
2018-02-23 11:50:00+00:00,327.0,312.0,6.66,10.27,,47.59359,-54.27349
2018-02-23 12:00:00+00:00,337.0,335.0,7.53,9.02,,47.59359,-54.27349
2018-02-23 12:10:00+00:00,341.0,347.0,10.23,14.02,,47.59359,-54.27349
2018-02-23 12:20:00+00:00,349.0,348.0,10.64,12.57,,47.59359,-54.27349
2018-02-23 12:30:00+00:00,345.0,343.0,8.62,10.45,,47.59359,-54.27349
2018-02-23 12:40:00+00:00,350.0,354.0,10.35,12.44,,47.59359,-54.27349
2018-02-23 12:50:00+00:00,358.0,1.0,10.9,12.47,,47.59359,-54.27349
2018-02-23 13:00:00+00:00,356.0,357.0,11.5,14.07,,47.59359,-54.27349
2018-02-23 13:10:00+00:00,345.0,349.0,10.75,12.69,,47.59359,-54.27349
2018-02-23 13:20:00+00:00,353.0,347.0,11.5,13.6,,47.59359,-54.27349
2018-02-23 13:30:00+00:00,350.0,358.0,12.22,13.89,,47.59359,-54.27349
2018-02-23 13:40:00+00:00,350.0,350.0,11.89,13.43,,47.59359,-54.27349
2018-02-23 13:50:00+00:00,343.0,350.0,11.37,13.09,,47.59359,-54.27349
2018-02-23 14:00:00+00:00,352.0,352.0,11.6,13.53,,47.59359,-54.27349
2018-02-23 14:10:00+00:00,345.0,344.0,11.76,13.41,,47.59359,-54.27349
2018-02-23 14:20:00+00:00,347.0,347.0,10.71,12.82,,47.59359,-54.27349
2018-02-23 14:30:00+00:00,344.0,345.0,10.4,11.65,,47.59359,-54.27349
2018-02-23 14:40:00+00:00,346.0,345.0,8.85,11.08,,47.59359,-54.27349
2018-02-23 14:50:00+00:00,330.0,329.0,10.99,13.37,,47.59359,-54.27349
2018-02-23 15:00:00+00:00,345.0,347.0,10.81,13.4,,47.59359,-54.27349
2018-02-23 15:10:00+00:00,350.0,352.0,10.28,11.93,,47.59359,-54.27349
2018-02-23 15:20:00+00:00,342.0,342.0,9.5,10.78,,47.59359,-54.27349
2018-02-23 15:30:00+00:00,347.0,345.0,11.83,14.17,,47.59359,-54.27349
2018-02-23 15:40:00+00:00,350.0,4.0,11.62,14.82,,47.59359,-54.27349
2018-02-23 15:50:00+00:00,0.0,356.0,12.72,14.25,,47.59359,-54.27349
2018-02-23 16:00:00+00:00,324.0,325.0,12.78,14.94,,47.59359,-54.27349
2018-02-23 16:10:00+00:00,337.0,339.0,13.44,15.73,,47.59359,-54.27349
2018-02-23 16:20:00+00:00,359.0,354.0,12.59,13.75,,47.59359,-54.27349
2018-02-23 16:30:00+00:00,351.0,355.0,12.47,14.47,,47.59359,-54.27349
2018-02-23 16:40:00+00:00,348.0,348.0,13.35,17.08,,47.59359,-54.27349
2018-02-23 16:50:00+00:00,326.0,334.0,13.27,15.07,,47.59359,-54.27349
2018-02-23 17:00:00+00:00,347.0,347.0,11.93,13.95,,47.59359,-54.27349
2018-02-23 17:10:00+00:00,328.0,330.0,9.86,12.74,,47.59359,-54.27349
2018-02-23 17:20:00+00:00,338.0,333.0,9.61,10.89,,47.59359,-54.27349
2018-02-23 17:30:00+00:00,324.0,326.0,9.1,10.47,,47.59359,-54.27349
2018-02-23 17:40:00+00:00,356.0,357.0,12.35,14.32,,47.59359,-54.27349
2018-02-23 17:50:00+00:00,334.0,6.0,7.99,11.23,,47.59359,-54.27349
2018-02-23 18:00:00+00:00,332.0,336.0,12.21,14.22,,47.59359,-54.27349
2018-02-23 18:10:00+00:00,313.0,312.0,6.97,10.33,,47.59359,-54.27349
2018-02-23 18:20:00+00:00,358.0,356.0,12.05,14.13,,47.59359,-54.27349
2018-02-23 18:30:00+00:00,325.0,316.0,10.63,12.85,,47.59359,-54.27349
2018-02-23 18:40:00+00:00,333.0,326.0,10.63,12.53,,47.59359,-54.27349
2018-02-23 18:50:00+00:00,322.0,319.0,7.8,8.92,,47.59359,-54.27349
2018-02-23 19:00:00+00:00,320.0,320.0,11.54,13.46,,47.59359,-54.27349
2018-02-23 19:10:00+00:00,318.0,326.0,10.39,13.22,,47.59359,-54.27349
2018-02-23 19:20:00+00:00,332.0,330.0,9.39,10.87,,47.59359,-54.27349
2018-02-23 19:30:00+00:00,319.0,321.0,10.99,12.59,,47.59359,-54.27349
2018-02-23 19:40:00+00:00,355.0,355.0,11.25,14.51,,47.59359,-54.27349
2018-02-23 19:50:00+00:00,349.0,342.0,10.93,13.28,,47.59359,-54.27349
2018-02-23 20:00:00+00:00,328.0,326.0,10.64,12.42,,47.59359,-54.27349
2018-02-23 20:10:00+00:00,323.0,324.0,9.01,11.72,,47.59359,-54.27349
2018-02-23 20:20:00+00:00,332.0,322.0,7.59,9.37,,47.59359,-54.27349
2018-02-23 20:30:00+00:00,328.0,320.0,6.29,7.85,,47.59359,-54.27349
2018-02-23 20:40:00+00:00,318.0,335.0,7.04,10.03,,47.59359,-54.27349
2018-02-23 20:50:00+00:00,316.0,308.0,8.12,9.48,,47.59359,-54.27349
2018-02-23 21:00:00+00:00,323.0,319.0,7.84,10.14,,47.59359,-54.27349
2018-02-23 21:10:00+00:00,325.0,322.0,6.45,7.6,,47.59359,-54.27349
2018-02-23 21:20:00+00:00,317.0,309.0,6.8,8.0,,47.59359,-54.27349
2018-02-23 21:30:00+00:00,322.0,324.0,4.63,5.67,,47.59359,-54.27349
2018-02-23 21:40:00+00:00,313.0,320.0,9.38,11.1,,47.59359,-54.27349
2018-02-23 21:50:00+00:00,312.0,312.0,8.64,9.49,,47.59359,-54.27349
2018-02-23 22:00:00+00:00,303.0,307.0,7.68,9.08,,47.59359,-54.27349
2018-02-23 22:10:00+00:00,314.0,310.0,7.1,9.87,,47.59359,-54.27349
2018-02-23 22:20:00+00:00,315.0,312.0,7.67,9.79,,47.59359,-54.27349
2018-02-23 22:30:00+00:00,305.0,308.0,7.56,9.06,,47.59359,-54.27349
2018-02-23 22:40:00+00:00,324.0,340.0,7.98,10.84,,47.59359,-54.27349
2018-02-23 22:50:00+00:00,310.0,309.0,7.57,8.74,,47.59359,-54.27349
2018-02-23 23:00:00+00:00,313.0,311.0,7.67,8.85,,47.59359,-54.27349
2018-02-23 23:10:00+00:00,316.0,321.0,7.43,8.65,,47.59359,-54.27349
2018-02-23 23:20:00+00:00,305.0,310.0,6.75,7.91,,47.59359,-54.27349
2018-02-23 23:30:00+00:00,312.0,320.0,7.05,9.69,,47.59359,-54.27349
2018-02-23 23:40:00+00:00,312.0,314.0,6.93,8.8,,47.59359,-54.27349
2018-02-23 23:50:00+00:00,316.0,315.0,5.48,8.01,,47.59359,-54.27349
